Weather History for Port Angeles, WA

Change the Weather History Date:

Tuesday, July 2, 2013

  Actual Average Record
Temperature  
Mean Temperature 63 °F -  
Max Temperature 70 °F 67 °F 84 °F (1968)
Min Temperature 57 °F 50 °F 41 °F (1954)
Degree Days  
Heating Degree Days 2    
Growing Degree Days 13 (Base 50)    
Moisture  
Dew Point 54 °F    
Average Humidity 78    
Maximum Humidity 93    
Minimum Humidity 51    
Precipitation  
Precipitation 0.00 in - - ()
Sea Level Pressure  
Sea Level Pressure 30.10 in    
Wind  
Wind Speed 11 mph (WNW)    
Max Wind Speed 17 mph    
Max Gust Speed 24 mph    
Visibility 10 miles    
Events      
Averages and records for this station are not official NWS values.
T = Trace of Precipitation, MM = Missing Value Source: NWS Daily Summary

Daily Weather History Graph

Daily Weather History Graph

Search for Another Location

Airport:

Trip Planner

Search our weather history database for the weather conditions in past years. The results will help you decide how hot, cold, wet, or windy it might be!

Date:

Astronomy

Jul. 02, 2013 Rise Set
Actual Time 5:18 AM PDT 9:17 PM PDT
Civil Twilight 4:37 AM PDT 9:58 PM PDT
Nautical Twilight 3:40 AM PDT 10:54 PM PDT
Astronomical Twilight 2:07 AM PDT 12:26 AM PDT
Moon 1:38 AM PDT (7/2) 4:25 PM PDT (7/2)
Length of Visible Light 17h 20m
Length of Day
15h 58m
Waning Crescent, 25% of the Moon is Illuminated
Jul 2
Waning Crescent
Jul 8
New
Jul 15
First Quarter
Jul 22
Full
Jul 29
Last Quarter

Hourly Weather History & Observations

Time (PDT) Temp. Dew Point Humidity Pressure Visibility Wind Dir Wind Speed Gust Speed Precip Events Conditions
12:53 AM 57.0 °F 55.0 °F 93% 30.06 in 10.0 mi WNW 6.9 mph - N/A   Clear
1:53 AM 57.9 °F 55.0 °F 90% 30.07 in 10.0 mi NW 13.8 mph - N/A   Clear
2:53 AM 57.9 °F 55.0 °F 90% 30.07 in 10.0 mi WNW 10.4 mph - N/A   Clear
3:26 AM 57.9 °F 55.0 °F 90% 30.07 in 10.0 mi WNW 9.2 mph 19.6 mph N/A   Scattered Clouds
3:41 AM 57.9 °F 55.0 °F 90% 30.08 in 10.0 mi West 11.5 mph - N/A   Mostly Cloudy
3:53 AM 57.0 °F 55.0 °F 93% 30.08 in 10.0 mi WNW 9.2 mph - N/A   Scattered Clouds
4:53 AM 57.0 °F 55.0 °F 93% 30.08 in 10.0 mi WNW 9.2 mph - N/A   Clear
5:53 AM 57.0 °F 54.0 °F 89% 30.09 in 10.0 mi WNW 10.4 mph - N/A   Clear
7:44 AM 60.1 °F 55.9 °F 86% 30.10 in 10.0 mi NW 8.1 mph - N/A   Partly Cloudy
7:53 AM 60.1 °F 55.9 °F 86% 30.10 in 10.0 mi WNW 12.7 mph 18.4 mph N/A   Partly Cloudy
8:28 AM 60.1 °F 55.9 °F 86% 30.10 in 10.0 mi NW 9.2 mph - N/A   Mostly Cloudy
8:53 AM 60.1 °F 55.9 °F 86% 30.11 in 10.0 mi NW 9.2 mph - N/A   Overcast
9:53 AM 60.1 °F 55.9 °F 86% 30.12 in 10.0 mi WNW 9.2 mph - N/A   Overcast
10:53 AM 59.0 °F 55.9 °F 90% 30.13 in 10.0 mi NW 12.7 mph - N/A   Overcast
11:53 AM 61.0 °F 55.9 °F 83% 30.13 in 10.0 mi WNW 10.4 mph - N/A   Overcast
12:30 PM 62.1 °F 55.9 °F 80% 30.13 in 10.0 mi NW 12.7 mph 20.7 mph N/A   Scattered Clouds
12:53 PM 62.1 °F 55.0 °F 78% 30.13 in 10.0 mi NW 17.3 mph 23.0 mph N/A   Clear
1:53 PM 64.9 °F 55.9 °F 73% 30.14 in 10.0 mi NW 10.4 mph - N/A   Clear
2:53 PM 66.9 °F 55.0 °F 66% 30.13 in 10.0 mi NNW 13.8 mph - N/A   Clear
3:53 PM 69.1 °F 53.1 °F 57% 30.12 in 10.0 mi NW 11.5 mph - N/A   Clear
4:53 PM 69.1 °F 52.0 °F 54% 30.11 in 10.0 mi WNW 12.7 mph - N/A   Clear
5:53 PM 66.9 °F 52.0 °F 59% 30.10 in 10.0 mi WNW 12.7 mph - N/A   Clear
6:53 PM 64.9 °F 51.1 °F 61% 30.10 in 10.0 mi WNW 13.8 mph 24.2 mph N/A   Clear
7:53 PM 63.0 °F 51.1 °F 65% 30.09 in 10.0 mi WNW 11.5 mph 20.7 mph N/A   Clear
8:53 PM 61.0 °F 48.9 °F 64% 30.09 in 10.0 mi WNW 12.7 mph 19.6 mph N/A   Clear
9:53 PM 59.0 °F 48.9 °F 69% 30.10 in 10.0 mi West 11.5 mph - N/A   Clear
10:53 PM 59.0 °F 48.0 °F 67% 30.10 in 10.0 mi West 12.7 mph - N/A   Clear
11:53 PM 60.1 °F 42.1 °F 51% 30.11 in 10.0 mi West 11.5 mph - N/A   Clear